Regional Weather Roundup
Issued by NWS Albany, NY

Home | Current Version | Previous Version | Text Only | Print | Product List | Glossary On
Versions: 1 2 3 4 5 6 7 8 9 10 11 12 13 14 15 16 17 18 19 20 21 22 23 24 25 26 27 28 29 30 31 32 33 34 35 36 37 38 39 40 41 42 43 44 45 46 47 48 49 50
350
ASUS41 KALY 240910
RWRALY

NEW YORK STATE HOURLY WEATHER ROUNDUP
NATIONAL WEATHER SERVICE ALBANY NY
400 AM EST FRI FEB 24 2017

NOTE: "FAIR" INDICATES FEW OR NO CLOUDS BELOW 12,000 FEET WITH NO
SIGNIFICANT WEATHER AND/OR NO OBSTRUCTIONS TO VISIBILITY.

NYZ032-033-038>043-046>054-057>066-NYZ062>081-082-084-241000-
EAST


CITY           SKY/WX    TMP DP  RH WIND       PRES   REMARKS
ALBANY         CLOUDY    46  42  86 CALM      29.90S
GLENS FALLS    CLOUDY    36  33  89 CALM      29.90R
POUGHKEEPSIE   MOCLDY    47  47 100 CALM      29.88R FOG
NEWBURGH       MOCLDY    54  52  94 CALM      29.80F
MONTGOMERY     FOG       48  47  96 N3        29.88R VSB 3/4
WHITE PLAINS   CLEAR     46  44  93 SE3       29.91R
ISLIP          CLEAR     46  46 100 SW6       29.93F
NEW YORK CITY  PTCLDY    53  47  79 S7        29.91S
CENTRAL PARK   PTCLDY    59  51  75 MISG      29.94R
$$

NYZ005>009-017-018-044>046-055-056-241000-
CENTRAL


CITY           SKY/WX    TMP DP  RH WIND       PRES   REMARKS
FULTON         CLOUDY    40  38  93 CALM      29.89F
SYRACUSE       CLOUDY    42  39  89 E3        29.88F
ROME           CLOUDY    38  36  92 CALM      29.92S
ELMIRA         LGT RAIN  45  41  86 CALM      29.85F
BINGHAMTON     CLOUDY    46  46 100 SE6       29.85F FOG
MONTICELLO     CLOUDY    48  48 100 N5        29.91R
$$

NYZ026>034-041>043-087-241000-
NORTH


CITY           SKY/WX    TMP DP  RH WIND       PRES   REMARKS
WATERTOWN      CLOUDY    36  36 100 E5        29.91S WCI  32
FORT DRUM      NOT AVBL
OGDENSBURG     MOCLDY    38  34  85 N3        29.93R
MASSENA        CLOUDY    37  34  89 W3        29.94R
SARANAC LAKE   CLOUDY    34  34 100 CALM      29.85F
PLATTSBURGH    CLOUDY    40  36  86 CALM      29.89S
$$

NYZ001>004-010>016-019>021-085-241000-
WEST


CITY           SKY/WX    TMP DP  RH WIND       PRES   REMARKS
NIAGARA FALLS  CLOUDY    42  37  82 NE9       29.83F
BUFFALO        LGT RAIN  43  38  82 NE10      29.82F
DUNKIRK        RAIN      39  38  96 N12       29.80F FOG     WCI  32
JAMESTOWN        N/A     52  48  87 S5        29.78F
WELLSVILLE     CLOUDY    52  49  89 S8        29.83F FOG
ROCHESTER      LGT RAIN  46  40  79 E6        29.87F
PENN YAN       CLOUDY    45  39  79 CALM      29.86F
$$

             KEY
       WCI = WIND CHILL INDEX
       VSB = VISIBILITY
       HX  = HEAT INDEX
$$




USA.gov is the U.S. government's official web portal to all federal, state and local government web resources and services.